Time,TemperatureF,DewpointF,PressureIn,WindDirection,WindDirectionDegrees,WindSpeedMPH,WindSpeedGustMPH,Humidity,HourlyPrecipIn,Conditions,Clouds,dailyrainin,SolarRadiationWatts/m^2,SoftwareType,DateUTC
2013-01-02 00:00:00,42.2,41.6,30.02,NNW,344,1.0,3.0,98,0.00,,,0.00,0,HR-IXPWINDi_r2_v1.2.,2013-01-02 05:00:00,
2013-01-02 00:05:00,42.0,41.4,30.01,NNW,344,0.0,3.0,98,0.00,,,0.00,0,HR-IXPWINDi_r2_v1.2.,2013-01-02 05:05:00,
2013-01-02 00:10:00,42.0,41.4,30.00,NNW,344,0.0,2.0,98,0.00,,,0.01,0,HR-IXPWINDi_r2_v1.2.,2013-01-02 05:10:00,
2013-01-02 00:15:00,42.3,41.7,30.01,North,360,2.0,5.0,98,0.00,,,0.01,0,HR-IXPWINDi_r2_v1.2.,2013-01-02 05:15:00,
2013-01-02 00:20:00,43.0,42.4,30.00,ESE,107,2.0,5.0,98,0.04,,,0.02,0,HR-IXPWINDi_r2_v1.2.,2013-01-02 05:20:00,
2013-01-02 00:25:00,42.4,41.8,30.00,ESE,107,1.0,5.0,98,0.04,,,0.02,0,HR-IXPWINDi_r2_v1.2.,2013-01-02 05:25:00,
2013-01-02 00:30:00,42.5,41.9,30.01,ESE,107,2.0,4.0,98,0.04,,,0.02,0,HR-IXPWINDi_r2_v1.2.,2013-01-02 05:30:00,
2013-01-02 00:36:00,42.2,41.6,30.01,ESE,112,0.0,4.0,98,0.04,,,0.02,0,HR-IXPWINDi_r2_v1.2.,2013-01-02 05:36:00,
2013-01-02 00:41:00,42.4,41.8,30.00,ESE,112,0.0,4.0,98,0.00,,,0.02,0,HR-IXPWINDi_r2_v1.2.,2013-01-02 05:41:00,
2013-01-02 00:46:00,42.4,41.8,30.01,ESE,112,0.0,0.0,98,0.00,,,0.02,0,HR-IXPWINDi_r2_v1.2.,2013-01-02 05:46:00,
2013-01-02 00:51:00,42.5,41.9,30.01,East,86,2.0,2.0,98,0.00,,,0.02,0,HR-IXPWINDi_r2_v1.2.,2013-01-02 05:51:00,
2013-01-02 00:57:00,42.5,41.9,30.00,East,86,0.0,2.0,98,0.00,,,0.02,0,HR-IXPWINDi_r2_v1.2.,2013-01-02 05:57:00,
2013-01-02 01:02:00,42.1,41.5,29.99,East,86,0.0,3.0,98,0.00,,,0.02,0,HR-IXPWINDi_r2_v1.2.,2013-01-02 06:02:00,
2013-01-02 01:07:00,42.1,41.5,29.99,East,86,0.0,3.0,98,0.00,,,0.02,0,HR-IXPWINDi_r2_v1.2.,2013-01-02 06:07:00,
2013-01-02 01:12:00,42.2,41.6,30.00,East,86,0.0,0.0,98,0.00,,,0.02,0,HR-IXPWINDi_r2_v1.2.,2013-01-02 06:12:00,
2013-01-02 01:17:00,42.3,41.7,29.99,East,86,0.0,0.0,98,0.00,,,0.02,0,HR-IXPWINDi_r2_v1.2.,2013-01-02 06:17:00,
2013-01-02 01:23:00,42.2,41.6,29.99,East,86,0.0,0.0,98,0.00,,,0.02,0,HR-IXPWINDi_r2_v1.2.,2013-01-02 06:23:00,
2013-01-02 01:28:00,42.1,41.5,29.98,East,86,0.0,0.0,98,0.00,,,0.02,0,HR-IXPWINDi_r2_v1.2.,2013-01-02 06:28:00,
2013-01-02 01:33:00,42.2,41.6,29.98,East,86,0.0,0.0,98,0.00,,,0.02,0,HR-IXPWINDi_r2_v1.2.,2013-01-02 06:33:00,
2013-01-02 01:38:00,42.2,41.6,29.98,East,86,0.0,2.0,98,0.00,,,0.02,0,HR-IXPWINDi_r2_v1.2.,2013-01-02 06:38:00,
2013-01-02 01:43:00,42.4,41.8,29.99,East,86,2.0,2.0,98,0.00,,,0.02,0,HR-IXPWINDi_r2_v1.2.,2013-01-02 06:43:00,
2013-01-02 01:48:00,42.3,41.7,30.00,East,86,0.0,2.0,98,0.00,,,0.02,0,HR-IXPWINDi_r2_v1.2.,2013-01-02 06:48:00,
2013-01-02 01:54:00,42.3,41.7,29.99,East,86,0.0,2.0,98,0.00,,,0.02,0,HR-IXPWINDi_r2_v1.2.,2013-01-02 06:54:00,
2013-01-02 01:59:00,42.3,41.7,29.99,East,86,0.0,2.0,98,0.00,,,0.02,0,HR-IXPWINDi_r2_v1.2.,2013-01-02 06:59:00,
2013-01-02 02:04:00,42.4,41.8,30.00,East,86,0.0,2.0,98,0.00,,,0.02,0,HR-IXPWINDi_r2_v1.2.,2013-01-02 07:04:00,
2013-01-02 02:09:00,42.4,41.8,29.99,East,86,1.0,3.0,98,0.00,,,0.02,0,HR-IXPWINDi_r2_v1.2.,2013-01-02 07:09:00,
2013-01-02 02:15:00,42.9,42.3,30.00,WSW,258,3.0,5.0,98,0.00,,,0.02,0,HR-IXPWINDi_r2_v1.2.,2013-01-02 07:15:00,
2013-01-02 02:20:00,43.4,42.8,29.99,NNW,340,1.0,8.0,98,0.00,,,0.02,0,HR-IXPWINDi_r2_v1.2.,2013-01-02 07:20:00,
2013-01-02 02:25:00,43.6,43.0,30.00,SW,228,2.0,8.0,98,0.00,,,0.02,0,HR-IXPWINDi_r2_v1.2.,2013-01-02 07:25:00,
2013-01-02 02:30:00,43.8,43.2,30.00,NNW,341,5.0,5.0,98,0.00,,,0.02,0,HR-IXPWINDi_r2_v1.2.,2013-01-02 07:30:00,
2013-01-02 02:36:00,44.2,43.6,30.00,WNW,295,1.0,5.0,98,0.00,,,0.02,0,HR-IXPWINDi_r2_v1.2.,2013-01-02 07:36:00,
2013-01-02 02:41:00,44.2,43.6,30.00,NW,312,0.0,10.0,98,0.00,,,0.02,0,HR-IXPWINDi_r2_v1.2.,2013-01-02 07:41:00,
2013-01-02 02:46:00,44.2,43.3,30.01,NW,312,0.0,10.0,97,0.00,,,0.02,0,HR-IXPWINDi_r2_v1.2.,2013-01-02 07:46:00,
2013-01-02 02:51:00,44.1,43.2,30.01,WNW,294,0.0,5.0,97,0.00,,,0.02,0,HR-IXPWINDi_r2_v1.2.,2013-01-02 07:51:00,
2013-01-02 02:56:00,44.0,43.1,30.02,SW,232,1.0,5.0,97,0.00,,,0.02,0,HR-IXPWINDi_r2_v1.2.,2013-01-02 07:56:00,
2013-01-02 03:02:00,43.5,42.6,30.03,NW,325,2.0,11.0,97,0.00,,,0.02,0,HR-IXPWINDi_r2_v1.2.,2013-01-02 08:02:00,
2013-01-02 03:07:00,43.0,42.2,30.03,SSW,207,2.0,14.0,97,0.00,,,0.02,0,HR-IXPWINDi_r2_v1.2.,2013-01-02 08:07:00,
2013-01-02 03:12:00,42.8,42.0,30.04,NW,307,2.0,14.0,97,0.00,,,0.02,0,HR-IXPWINDi_r2_v1.2.,2013-01-02 08:12:00,
2013-01-02 03:17:00,42.5,41.4,30.04,West,279,2.0,13.0,96,0.00,,,0.02,0,HR-IXPWINDi_r2_v1.2.,2013-01-02 08:17:00,
2013-01-02 03:22:00,42.3,41.2,30.05,NW,317,0.0,8.0,96,0.00,,,0.02,0,HR-IXPWINDi_r2_v1.2.,2013-01-02 08:22:00,
2013-01-02 03:28:00,42.0,40.9,30.04,SSE,167,0.0,9.0,96,0.00,,,0.02,0,HR-IXPWINDi_r2_v1.2.,2013-01-02 08:28:00,
2013-01-02 03:33:00,41.7,40.6,30.04,SW,221,0.0,9.0,96,0.00,,,0.02,0,HR-IXPWINDi_r2_v1.2.,2013-01-02 08:33:00,
2013-01-02 03:38:00,41.5,40.1,30.04,SW,214,1.0,7.0,95,0.00,,,0.02,0,HR-IXPWINDi_r2_v1.2.,2013-01-02 08:38:00,
2013-01-02 03:44:00,41.4,40.0,30.04,SSW,201,0.0,7.0,95,0.00,,,0.02,0,HR-IXPWINDi_r2_v1.2.,2013-01-02 08:44:00,
2013-01-02 03:49:00,41.3,39.9,30.04,SSW,201,0.0,7.0,95,0.00,,,0.02,0,HR-IXPWINDi_r2_v1.2.,2013-01-02 08:49:00,
2013-01-02 03:54:00,41.3,39.9,30.04,WNW,298,5.0,5.0,95,0.00,,,0.02,0,HR-IXPWINDi_r2_v1.2.,2013-01-02 08:54:00,
2013-01-02 04:00:00,41.2,39.6,30.04,SSW,194,0.0,5.0,94,0.00,,,0.02,0,HR-IXPWINDi_r2_v1.2.,2013-01-02 09:00:00,
2013-01-02 04:05:00,41.2,39.6,30.04,SSW,211,0.0,5.0,94,0.00,,,0.02,0,HR-IXPWINDi_r2_v1.2.,2013-01-02 09:05:00,
2013-01-02 04:10:00,41.1,39.2,30.03,South,182,0.0,4.0,93,0.00,,,0.02,0,HR-IXPWINDi_r2_v1.2.,2013-01-02 09:10:00,
2013-01-02 04:15:00,41.1,39.2,30.02,NNW,333,3.0,6.0,93,0.00,,,0.02,0,HR-IXPWINDi_r2_v1.2.,2013-01-02 09:15:00,
2013-01-02 04:20:00,41.2,39.0,30.03,SW,223,1.0,6.0,92,0.00,,,0.02,0,HR-IXPWINDi_r2_v1.2.,2013-01-02 09:20:00,
2013-01-02 04:26:00,41.3,38.8,30.03,South,191,3.0,5.0,91,0.00,,,0.02,0,HR-IXPWINDi_r2_v1.2.,2013-01-02 09:26:00,
2013-01-02 04:31:00,41.1,38.9,30.05,WSW,245,0.0,5.0,92,0.00,,,0.02,0,HR-IXPWINDi_r2_v1.2.,2013-01-02 09:31:00,
2013-01-02 04:36:00,41.0,38.5,30.05,SSW,212,0.0,8.0,91,0.00,,,0.02,0,HR-IXPWINDi_r2_v1.2.,2013-01-02 09:36:00,
2013-01-02 04:41:00,40.8,38.6,30.04,SSW,212,0.0,8.0,92,0.00,,,0.02,0,HR-IXPWINDi_r2_v1.2.,2013-01-02 09:41:00,
2013-01-02 04:46:00,40.7,38.5,30.04,SSW,212,0.0,2.0,92,0.00,,,0.02,0,HR-IXPWINDi_r2_v1.2.,2013-01-02 09:46:00,
2013-01-02 04:51:00,40.7,38.5,30.04,NNE,15,4.0,6.0,92,0.00,,,0.02,0,HR-IXPWINDi_r2_v1.2.,2013-01-02 09:51:00,
2013-01-02 04:56:00,40.8,38.3,30.04,NNW,337,0.0,7.0,91,0.00,,,0.02,0,HR-IXPWINDi_r2_v1.2.,2013-01-02 09:56:00,
2013-01-02 05:02:00,40.8,38.3,30.04,WSW,241,1.0,7.0,91,0.00,,,0.02,0,HR-IXPWINDi_r2_v1.2.,2013-01-02 10:02:00,
2013-01-02 05:07:00,40.9,38.4,30.04,WSW,241,0.0,4.0,91,0.00,,,0.02,0,HR-IXPWINDi_r2_v1.2.,2013-01-02 10:07:00,
2013-01-02 05:12:00,40.6,38.1,30.04,South,184,0.0,4.0,91,0.00,,,0.02,0,HR-IXPWINDi_r2_v1.2.,2013-01-02 10:12:00,
2013-01-02 05:17:00,40.4,38.2,30.04,South,184,0.0,4.0,92,0.00,,,0.02,0,HR-IXPWINDi_r2_v1.2.,2013-01-02 10:17:00,
2013-01-02 05:22:00,40.2,38.0,30.04,South,184,0.0,1.0,92,0.00,,,0.02,0,HR-IXPWINDi_r2_v1.2.,2013-01-02 10:22:00,
2013-01-02 05:28:00,40.1,38.2,30.04,South,184,0.0,1.0,93,0.00,,,0.02,0,HR-IXPWINDi_r2_v1.2.,2013-01-02 10:28:00,
2013-01-02 05:33:00,40.0,38.1,30.04,South,184,0.0,0.0,93,0.00,,,0.02,0,HR-IXPWINDi_r2_v1.2.,2013-01-02 10:33:00,
2013-01-02 05:38:00,39.8,37.9,30.04,SSW,195,0.0,4.0,93,0.00,,,0.02,0,HR-IXPWINDi_r2_v1.2.,2013-01-02 10:38:00,
2013-01-02 05:43:00,39.7,38.1,30.03,SW,217,0.0,4.0,94,0.00,,,0.02,0,HR-IXPWINDi_r2_v1.2.,2013-01-02 10:43:00,
2013-01-02 05:48:00,39.5,37.9,30.03,SW,217,0.0,3.0,94,0.00,,,0.02,0,HR-IXPWINDi_r2_v1.2.,2013-01-02 10:48:00,
2013-01-02 05:53:00,39.1,37.5,30.03,SW,217,0.0,1.0,94,0.00,,,0.02,0,HR-IXPWINDi_r2_v1.2.,2013-01-02 10:53:00,
2013-01-02 05:59:00,38.9,37.3,30.04,SW,217,0.0,1.0,94,0.00,,,0.02,0,HR-IXPWINDi_r2_v1.2.,2013-01-02 10:59:00,
2013-01-02 06:04:00,38.7,37.3,30.04,SW,217,0.0,2.0,95,0.00,,,0.02,0,HR-IXPWINDi_r2_v1.2.,2013-01-02 11:04:00,
2013-01-02 06:09:00,38.7,37.3,30.05,SW,217,3.0,3.0,95,0.00,,,0.02,0,HR-IXPWINDi_r2_v1.2.,2013-01-02 11:09:00,
2013-01-02 06:15:00,38.6,37.2,30.05,SW,217,0.0,3.0,95,0.00,,,0.02,0,HR-IXPWINDi_r2_v1.2.,2013-01-02 11:15:00,
2013-01-02 06:20:00,38.6,37.2,30.04,SW,217,2.0,3.0,95,0.00,,,0.02,0,HR-IXPWINDi_r2_v1.2.,2013-01-02 11:20:00,
2013-01-02 06:25:00,38.6,37.2,30.04,SW,217,0.0,3.0,95,0.00,,,0.02,0,HR-IXPWINDi_r2_v1.2.,2013-01-02 11:25:00,
2013-01-02 06:30:00,38.7,37.3,30.05,NNW,342,0.0,5.0,95,0.00,,,0.02,0,HR-IXPWINDi_r2_v1.2.,2013-01-02 11:30:00,
2013-01-02 06:35:00,38.9,37.5,30.05,NNW,333,2.0,6.0,95,0.00,,,0.02,0,HR-IXPWINDi_r2_v1.2.,2013-01-02 11:35:00,
2013-01-02 06:41:00,39.3,37.7,30.05,NW,321,4.0,6.0,94,0.00,,,0.02,0,HR-IXPWINDi_r2_v1.2.,2013-01-02 11:41:00,
2013-01-02 06:46:00,39.5,37.6,30.06,West,268,0.0,4.0,93,0.00,,,0.02,0,HR-IXPWINDi_r2_v1.2.,2013-01-02 11:46:00,
2013-01-02 06:51:00,39.6,37.4,30.07,NNW,347,7.0,12.0,92,0.00,,,0.02,0,HR-IXPWINDi_r2_v1.2.,2013-01-02 11:51:00,
2013-01-02 06:56:00,39.6,37.4,30.07,NNW,338,2.0,12.0,92,0.00,,,0.02,0,HR-IXPWINDi_r2_v1.2.,2013-01-02 11:56:00,
2013-01-02 07:01:00,39.5,37.0,30.08,NNW,337,7.0,10.0,91,0.00,,,0.02,0,HR-IXPWINDi_r2_v1.2.,2013-01-02 12:01:00,
2013-01-02 07:06:00,39.6,37.1,30.07,WNW,301,4.0,13.0,91,0.00,,,0.02,0,HR-IXPWINDi_r2_v1.2.,2013-01-02 12:06:00,
2013-01-02 07:12:00,39.6,36.9,30.08,North,355,2.0,13.0,90,0.00,,,0.02,0,HR-IXPWINDi_r2_v1.2.,2013-01-02 12:12:00,
2013-01-02 07:17:00,39.5,36.8,30.07,NNW,333,0.0,7.0,90,0.00,,,0.02,0,HR-IXPWINDi_r2_v1.2.,2013-01-02 12:17:00,
2013-01-02 07:22:00,39.5,36.8,30.07,SW,223,1.0,3.0,90,0.00,,,0.02,0,HR-IXPWINDi_r2_v1.2.,2013-01-02 12:22:00,
2013-01-02 07:27:00,39.4,36.7,30.08,SW,223,0.0,3.0,90,0.00,,,0.02,0,HR-IXPWINDi_r2_v1.2.,2013-01-02 12:27:00,
2013-01-02 07:32:00,39.3,36.6,30.09,SW,223,2.0,2.0,90,0.00,,,0.02,0,HR-IXPWINDi_r2_v1.2.,2013-01-02 12:32:00,
2013-01-02 07:37:00,39.0,36.6,30.09,SSW,195,3.0,5.0,91,0.00,,,0.02,0,HR-IXPWINDi_r2_v1.2.,2013-01-02 12:37:00,
2013-01-02 07:43:00,38.8,36.6,30.09,WSW,246,0.0,5.0,92,0.00,,,0.02,0,HR-IXPWINDi_r2_v1.2.,2013-01-02 12:43:00,
2013-01-02 07:48:00,38.6,36.4,30.09,NNW,341,6.0,6.0,92,0.00,,,0.02,0,HR-IXPWINDi_r2_v1.2.,2013-01-02 12:48:00,
2013-01-02 07:53:00,38.4,36.2,30.10,North,5,3.0,7.0,92,0.00,,,0.02,0,HR-IXPWINDi_r2_v1.2.,2013-01-02 12:53:00,
2013-01-02 07:58:00,38.2,36.0,30.10,North,349,0.0,7.0,92,0.00,,,0.02,0,HR-IXPWINDi_r2_v1.2.,2013-01-02 12:58:00,
2013-01-02 08:03:00,38.0,35.8,30.09,North,351,4.0,8.0,92,0.00,,,0.02,5,HR-IXPWINDi_r2_v1.2.,2013-01-02 13:03:00,
2013-01-02 08:09:00,37.6,35.2,30.10,NNW,331,2.0,8.0,91,0.00,,,0.02,11,HR-IXPWINDi_r2_v1.2.,2013-01-02 13:09:00,
2013-01-02 08:14:00,37.4,35.0,30.10,North,5,2.0,6.0,91,0.00,,,0.02,11,HR-IXPWINDi_r2_v1.2.,2013-01-02 13:14:00,
2013-01-02 08:19:00,37.3,34.9,30.10,SW,231,0.0,7.0,91,0.00,,,0.02,12,HR-IXPWINDi_r2_v1.2.,2013-01-02 13:19:00,
2013-01-02 08:24:00,37.3,34.9,30.10,NW,311,6.0,7.0,91,0.00,,,0.02,9,HR-IXPWINDi_r2_v1.2.,2013-01-02 13:24:00,
2013-01-02 08:29:00,37.3,34.9,30.11,NNW,338,0.0,7.0,91,0.00,,,0.02,7,HR-IXPWINDi_r2_v1.2.,2013-01-02 13:29:00,
2013-01-02 08:35:00,37.3,34.6,30.11,NW,313,2.0,7.0,90,0.00,,,0.02,7,HR-IXPWINDi_r2_v1.2.,2013-01-02 13:35:00,
2013-01-02 08:40:00,37.1,34.7,30.11,SSW,203,2.0,4.0,91,0.00,,,0.02,26,HR-IXPWINDi_r2_v1.2.,2013-01-02 13:40:00,
2013-01-02 08:45:00,37.1,34.7,30.10,West,260,1.0,7.0,91,0.00,,,0.02,39,HR-IXPWINDi_r2_v1.2.,2013-01-02 13:45:00,
2013-01-02 08:50:00,37.1,34.7,30.11,SW,229,0.0,7.0,91,0.00,,,0.02,30,HR-IXPWINDi_r2_v1.2.,2013-01-02 13:50:00,
2013-01-02 08:55:00,37.2,34.8,30.13,SW,228,1.0,4.0,91,0.00,,,0.02,19,HR-IXPWINDi_r2_v1.2.,2013-01-02 13:55:00,
2013-01-02 09:01:00,36.9,34.5,30.12,SSW,210,1.0,7.0,91,0.00,,,0.02,25,HR-IXPWINDi_r2_v1.2.,2013-01-02 14:01:00,
2013-01-02 09:06:00,36.8,34.4,30.12,SSW,199,5.0,7.0,91,0.00,,,0.02,44,HR-IXPWINDi_r2_v1.2.,2013-01-02 14:06:00,
2013-01-02 09:11:00,36.7,34.3,30.13,SSW,207,3.0,7.0,91,0.00,,,0.02,39,HR-IXPWINDi_r2_v1.2.,2013-01-02 14:11:00,
2013-01-02 09:16:00,36.7,34.6,30.12,WSW,238,0.0,7.0,92,0.00,,,0.02,47,HR-IXPWINDi_r2_v1.2.,2013-01-02 14:16:00,
2013-01-02 09:22:00,36.7,34.6,30.12,SSW,212,6.0,6.0,92,0.00,,,0.02,46,HR-IXPWINDi_r2_v1.2.,2013-01-02 14:22:00,
2013-01-02 09:27:00,36.6,34.5,30.12,SW,221,0.0,7.0,92,0.00,,,0.02,39,HR-IXPWINDi_r2_v1.2.,2013-01-02 14:27:00,
2013-01-02 09:32:00,36.9,35.0,30.13,SW,221,1.0,7.0,93,0.00,,,0.02,37,HR-IXPWINDi_r2_v1.2.,2013-01-02 14:32:00,
2013-01-02 09:37:00,36.9,34.8,30.14,NE,55,0.0,4.0,92,0.00,,,0.02,53,HR-IXPWINDi_r2_v1.2.,2013-01-02 14:37:00,
2013-01-02 09:42:00,36.7,34.6,30.12,SE,133,2.0,4.0,92,0.00,,,0.02,44,HR-IXPWINDi_r2_v1.2.,2013-01-02 14:42:00,
2013-01-02 09:48:00,36.5,34.6,30.12,SSW,198,2.0,6.0,93,0.00,,,0.02,26,HR-IXPWINDi_r2_v1.2.,2013-01-02 14:48:00,
2013-01-02 09:53:00,36.3,34.4,30.13,SSW,194,0.0,6.0,93,0.00,,,0.02,33,HR-IXPWINDi_r2_v1.2.,2013-01-02 14:53:00,
2013-01-02 09:58:00,36.5,34.6,30.14,NNW,329,2.0,4.0,93,0.00,,,0.02,40,HR-IXPWINDi_r2_v1.2.,2013-01-02 14:58:00,
2013-01-02 10:03:00,36.8,35.2,30.15,WSW,256,1.0,3.0,94,0.00,,,0.02,40,HR-IXPWINDi_r2_v1.2.,2013-01-02 15:03:00,
2013-01-02 10:08:00,36.8,34.9,30.16,West,270,1.0,3.0,93,0.00,,,0.02,62,HR-IXPWINDi_r2_v1.2.,2013-01-02 15:08:00,
2013-01-02 10:13:00,36.8,34.9,30.16,SE,146,0.0,4.0,93,0.00,,,0.02,93,HR-IXPWINDi_r2_v1.2.,2013-01-02 15:13:00,
2013-01-02 10:18:00,37.0,35.1,30.15,NNW,344,0.0,5.0,93,0.00,,,0.02,77,HR-IXPWINDi_r2_v1.2.,2013-01-02 15:18:00,
2013-01-02 10:23:00,36.8,34.7,30.14,SSW,192,0.0,5.0,92,0.00,,,0.02,62,HR-IXPWINDi_r2_v1.2.,2013-01-02 15:23:00,
2013-01-02 10:29:00,36.6,34.5,30.15,SSW,197,2.0,5.0,92,0.00,,,0.02,33,HR-IXPWINDi_r2_v1.2.,2013-01-02 15:29:00,
2013-01-02 10:34:00,36.6,34.5,30.15,SSW,207,1.0,5.0,92,0.00,,,0.02,39,HR-IXPWINDi_r2_v1.2.,2013-01-02 15:34:00,
2013-01-02 10:39:00,36.5,34.6,30.14,SSW,207,0.0,4.0,93,0.00,,,0.02,95,HR-IXPWINDi_r2_v1.2.,2013-01-02 15:39:00,
2013-01-02 10:44:00,36.8,34.9,30.15,SSW,207,0.0,4.0,93,0.00,,,0.02,125,HR-IXPWINDi_r2_v1.2.,2013-01-02 15:44:00,
2013-01-02 10:49:00,37.1,35.2,30.15,SW,214,1.0,4.0,93,0.00,,,0.02,105,HR-IXPWINDi_r2_v1.2.,2013-01-02 15:49:00,
2013-01-02 10:54:00,37.1,35.0,30.15,SSW,198,4.0,6.0,92,0.00,,,0.02,100,HR-IXPWINDi_r2_v1.2.,2013-01-02 15:54:00,
2013-01-02 10:59:00,37.5,35.6,30.15,WSW,240,0.0,6.0,93,0.00,,,0.02,137,HR-IXPWINDi_r2_v1.2.,2013-01-02 15:59:00,
2013-01-02 11:04:00,37.8,35.6,30.15,WSW,249,0.0,6.0,92,0.00,,,0.02,137,HR-IXPWINDi_r2_v1.2.,2013-01-02 16:04:00,
2013-01-02 11:10:00,37.5,35.3,30.15,South,181,0.0,5.0,92,0.00,,,0.02,148,HR-IXPWINDi_r2_v1.2.,2013-01-02 16:10:00,
2013-01-02 11:15:00,37.2,35.1,30.15,South,185,0.0,5.0,92,0.00,,,0.02,95,HR-IXPWINDi_r2_v1.2.,2013-01-02 16:15:00,
2013-01-02 11:20:00,37.4,35.2,30.14,SSW,205,0.0,3.0,92,0.00,,,0.02,123,HR-IXPWINDi_r2_v1.2.,2013-01-02 16:20:00,
2013-01-02 11:25:00,37.4,35.2,30.14,West,259,0.0,3.0,92,0.00,,,0.02,132,HR-IXPWINDi_r2_v1.2.,2013-01-02 16:25:00,
2013-01-02 11:30:00,37.6,35.4,30.14,SSW,192,4.0,4.0,92,0.00,,,0.02,139,HR-IXPWINDi_r2_v1.2.,2013-01-02 16:30:00,
2013-01-02 11:35:00,38.0,35.8,30.14,SSW,210,1.0,4.0,92,0.00,,,0.02,248,HR-IXPWINDi_r2_v1.2.,2013-01-02 16:35:00,
2013-01-02 11:41:00,38.6,36.2,30.13,SSW,211,5.0,5.0,91,0.00,,,0.02,172,HR-IXPWINDi_r2_v1.2.,2013-01-02 16:41:00,
2013-01-02 11:46:00,38.5,36.1,30.13,SW,228,1.0,5.0,91,0.00,,,0.02,232,HR-IXPWINDi_r2_v1.2.,2013-01-02 16:46:00,
2013-01-02 11:51:00,38.7,36.0,30.13,SSW,211,2.0,5.0,90,0.00,,,0.02,265,HR-IXPWINDi_r2_v1.2.,2013-01-02 16:51:00,
2013-01-02 11:56:00,38.8,35.8,30.13,SSW,198,3.0,6.0,89,0.00,,,0.02,239,HR-IXPWINDi_r2_v1.2.,2013-01-02 16:56:00,
2013-01-02 12:01:00,39.0,36.0,30.13,SSW,201,4.0,6.0,89,0.00,,,0.02,241,HR-IXPWINDi_r2_v1.2.,2013-01-02 17:01:00,
2013-01-02 12:06:00,39.5,36.2,30.13,SSW,209,3.0,6.0,88,0.00,,,0.02,297,HR-IXPWINDi_r2_v1.2.,2013-01-02 17:06:00,
2013-01-02 12:12:00,39.5,35.9,30.13,SSW,208,3.0,7.0,87,0.00,,,0.02,234,HR-IXPWINDi_r2_v1.2.,2013-01-02 17:12:00,
2013-01-02 12:17:00,39.7,35.8,30.12,SW,217,1.0,7.0,86,0.00,,,0.02,225,HR-IXPWINDi_r2_v1.2.,2013-01-02 17:17:00,
2013-01-02 12:22:00,39.5,35.3,30.12,SSW,211,3.0,5.0,85,0.00,,,0.02,165,HR-IXPWINDi_r2_v1.2.,2013-01-02 17:22:00,
2013-01-02 12:27:00,39.3,35.1,30.11,South,173,4.0,6.0,85,0.00,,,0.02,163,HR-IXPWINDi_r2_v1.2.,2013-01-02 17:27:00,
2013-01-02 12:32:00,39.7,35.8,30.12,South,177,2.0,6.0,86,0.00,,,0.02,156,HR-IXPWINDi_r2_v1.2.,2013-01-02 17:32:00,
2013-01-02 12:37:00,39.9,35.7,30.11,South,182,0.0,7.0,85,0.00,,,0.02,267,HR-IXPWINDi_r2_v1.2.,2013-01-02 17:37:00,
2013-01-02 12:42:00,40.3,36.1,30.11,South,188,0.0,7.0,85,0.00,,,0.02,265,HR-IXPWINDi_r2_v1.2.,2013-01-02 17:42:00,
2013-01-02 12:47:00,40.6,36.4,30.11,South,190,0.0,6.0,85,0.00,,,0.02,279,HR-IXPWINDi_r2_v1.2.,2013-01-02 17:47:00,
2013-01-02 12:52:00,41.1,36.6,30.11,SW,228,0.0,6.0,84,0.00,,,0.02,227,HR-IXPWINDi_r2_v1.2.,2013-01-02 17:52:00,
2013-01-02 12:58:00,40.9,35.8,30.11,SSW,207,2.0,5.0,82,0.00,,,0.02,325,HR-IXPWINDi_r2_v1.2.,2013-01-02 17:58:00,
2013-01-02 13:03:00,41.3,36.8,30.10,SSW,192,2.0,5.0,84,0.00,,,0.02,244,HR-IXPWINDi_r2_v1.2.,2013-01-02 18:03:00,
2013-01-02 13:08:00,41.2,35.8,30.10,SSW,197,1.0,7.0,81,0.00,,,0.02,295,HR-IXPWINDi_r2_v1.2.,2013-01-02 18:08:00,
2013-01-02 13:13:00,41.6,36.8,30.10,SSW,207,1.0,7.0,83,0.00,,,0.02,315,HR-IXPWINDi_r2_v1.2.,2013-01-02 18:13:00,
2013-01-02 13:18:00,41.9,36.5,30.10,SW,225,1.0,4.0,81,0.00,,,0.02,274,HR-IXPWINDi_r2_v1.2.,2013-01-02 18:18:00,
2013-01-02 13:23:00,42.1,36.7,30.09,SSW,194,5.0,5.0,81,0.00,,,0.02,230,HR-IXPWINDi_r2_v1.2.,2013-01-02 18:23:00,
2013-01-02 13:29:00,41.4,36.0,30.09,SSW,196,3.0,5.0,81,0.00,,,0.02,237,HR-IXPWINDi_r2_v1.2.,2013-01-02 18:29:00,
2013-01-02 13:34:00,41.3,35.9,30.10,South,188,3.0,6.0,81,0.00,,,0.02,220,HR-IXPWINDi_r2_v1.2.,2013-01-02 18:34:00,
2013-01-02 13:39:00,41.8,36.7,30.09,SSW,194,3.0,6.0,82,0.00,,,0.02,202,HR-IXPWINDi_r2_v1.2.,2013-01-02 18:39:00,
2013-01-02 13:44:00,41.5,36.1,30.08,SSW,200,4.0,7.0,81,0.00,,,0.02,179,HR-IXPWINDi_r2_v1.2.,2013-01-02 18:44:00,
2013-01-02 13:49:00,41.4,36.0,30.08,SSW,208,3.0,7.0,81,0.00,,,0.02,178,HR-IXPWINDi_r2_v1.2.,2013-01-02 18:49:00,
2013-01-02 13:55:00,41.5,36.4,30.08,SSW,201,0.0,7.0,82,0.00,,,0.02,160,HR-IXPWINDi_r2_v1.2.,2013-01-02 18:55:00,
2013-01-02 14:00:00,41.6,36.2,30.08,SSW,204,3.0,7.0,81,0.00,,,0.02,144,HR-IXPWINDi_r2_v1.2.,2013-01-02 19:00:00,
2013-01-02 14:05:00,41.3,35.9,30.08,SSW,209,1.0,8.0,81,0.00,,,0.02,155,HR-IXPWINDi_r2_v1.2.,2013-01-02 19:05:00,
2013-01-02 14:10:00,41.5,36.4,30.08,SSW,209,2.0,8.0,82,0.00,,,0.02,155,HR-IXPWINDi_r2_v1.2.,2013-01-02 19:10:00,
2013-01-02 14:15:00,41.7,36.6,30.08,SW,216,3.0,7.0,82,0.00,,,0.02,151,HR-IXPWINDi_r2_v1.2.,2013-01-02 19:15:00,
2013-01-02 14:20:00,41.4,36.3,30.08,SSW,195,3.0,7.0,82,0.00,,,0.02,144,HR-IXPWINDi_r2_v1.2.,2013-01-02 19:20:00,
2013-01-02 14:25:00,41.3,36.2,30.08,SW,218,4.0,6.0,82,0.00,,,0.02,146,HR-IXPWINDi_r2_v1.2.,2013-01-02 19:25:00,
2013-01-02 14:31:00,41.0,35.9,30.08,SSW,209,4.0,10.0,82,0.00,,,0.02,149,HR-IXPWINDi_r2_v1.2.,2013-01-02 19:31:00,
2013-01-02 14:36:00,40.8,35.7,30.09,SSW,208,5.0,10.0,82,0.00,,,0.02,141,HR-IXPWINDi_r2_v1.2.,2013-01-02 19:36:00,
2013-01-02 14:41:00,40.8,35.7,30.09,SSW,193,4.0,10.0,82,0.00,,,0.02,178,HR-IXPWINDi_r2_v1.2.,2013-01-02 19:41:00,
2013-01-02 14:46:00,41.0,36.2,30.09,South,174,5.0,9.0,83,0.00,,,0.02,190,HR-IXPWINDi_r2_v1.2.,2013-01-02 19:46:00,
2013-01-02 14:51:00,40.8,36.0,30.09,SSW,200,4.0,9.0,83,0.00,,,0.02,169,HR-IXPWINDi_r2_v1.2.,2013-01-02 19:51:00,
2013-01-02 14:57:00,40.7,36.2,30.09,SSW,193,3.0,9.0,84,0.00,,,0.02,125,HR-IXPWINDi_r2_v1.2.,2013-01-02 19:57:00,
2013-01-02 15:02:00,40.7,36.2,30.09,South,186,2.0,7.0,84,0.00,,,0.02,156,HR-IXPWINDi_r2_v1.2.,2013-01-02 20:02:00,
2013-01-02 15:07:00,40.5,36.0,30.09,SSW,201,6.0,9.0,84,0.00,,,0.02,120,HR-IXPWINDi_r2_v1.2.,2013-01-02 20:07:00,
2013-01-02 15:12:00,40.3,35.8,30.09,SSW,198,5.0,9.0,84,0.00,,,0.02,90,HR-IXPWINDi_r2_v1.2.,2013-01-02 20:12:00,
2013-01-02 15:17:00,40.4,36.2,30.09,SSW,204,3.0,7.0,85,0.00,,,0.02,97,HR-IXPWINDi_r2_v1.2.,2013-01-02 20:17:00,
2013-01-02 15:23:00,40.3,36.1,30.10,SSW,200,1.0,6.0,85,0.00,,,0.02,88,HR-IXPWINDi_r2_v1.2.,2013-01-02 20:23:00,
2013-01-02 15:28:00,40.3,36.1,30.10,SSW,194,3.0,7.0,85,0.00,,,0.02,84,HR-IXPWINDi_r2_v1.2.,2013-01-02 20:28:00,
2013-01-02 15:33:00,40.2,36.0,30.10,SSW,195,0.0,7.0,85,0.00,,,0.02,90,HR-IXPWINDi_r2_v1.2.,2013-01-02 20:33:00,
2013-01-02 15:38:00,40.1,35.9,30.10,SSW,197,0.0,6.0,85,0.00,,,0.02,77,HR-IXPWINDi_r2_v1.2.,2013-01-02 20:38:00,
2013-01-02 15:43:00,40.0,35.8,30.11,SSW,200,0.0,6.0,85,0.00,,,0.02,72,HR-IXPWINDi_r2_v1.2.,2013-01-02 20:43:00,
2013-01-02 15:48:00,39.8,35.6,30.10,SSW,202,1.0,6.0,85,0.00,,,0.02,70,HR-IXPWINDi_r2_v1.2.,2013-01-02 20:48:00,
2013-01-02 15:54:00,39.7,35.8,30.11,SSW,203,1.0,5.0,86,0.00,,,0.02,53,HR-IXPWINDi_r2_v1.2.,2013-01-02 20:54:00,
2013-01-02 15:59:00,39.4,35.2,30.11,South,174,0.0,6.0,85,0.00,,,0.02,54,HR-IXPWINDi_r2_v1.2.,2013-01-02 20:59:00,
2013-01-02 16:04:00,39.2,35.3,30.10,SSW,194,4.0,6.0,86,0.00,,,0.02,42,HR-IXPWINDi_r2_v1.2.,2013-01-02 21:04:00,
2013-01-02 16:09:00,38.8,34.9,30.11,SSW,202,2.0,6.0,86,0.00,,,0.02,49,HR-IXPWINDi_r2_v1.2.,2013-01-02 21:09:00,
2013-01-02 16:14:00,38.8,34.9,30.11,SSW,205,3.0,6.0,86,0.00,,,0.02,39,HR-IXPWINDi_r2_v1.2.,2013-01-02 21:14:00,
2013-01-02 16:19:00,38.8,34.9,30.12,SSW,195,3.0,5.0,86,0.00,,,0.02,26,HR-IXPWINDi_r2_v1.2.,2013-01-02 21:19:00,
2013-01-02 16:25:00,38.8,34.9,30.12,SSW,207,1.0,6.0,86,0.00,,,0.02,30,HR-IXPWINDi_r2_v1.2.,2013-01-02 21:25:00,
2013-01-02 16:30:00,38.7,34.8,30.12,SSW,207,1.0,6.0,86,0.00,,,0.02,28,HR-IXPWINDi_r2_v1.2.,2013-01-02 21:30:00,
2013-01-02 16:35:00,38.8,34.9,30.12,SSW,208,0.0,4.0,86,0.00,,,0.02,19,HR-IXPWINDi_r2_v1.2.,2013-01-02 21:35:00,
2013-01-02 16:40:00,38.6,34.7,30.11,SW,215,1.0,4.0,86,0.00,,,0.02,18,HR-IXPWINDi_r2_v1.2.,2013-01-02 21:40:00,
2013-01-02 16:46:00,38.3,34.4,30.11,SSW,200,0.0,6.0,86,0.00,,,0.02,16,HR-IXPWINDi_r2_v1.2.,2013-01-02 21:46:00,
2013-01-02 16:51:00,38.1,34.2,30.12,SSW,206,2.0,8.0,86,0.00,,,0.02,14,HR-IXPWINDi_r2_v1.2.,2013-01-02 21:51:00,
2013-01-02 16:56:00,37.9,34.3,30.11,SSW,206,2.0,8.0,87,0.00,,,0.02,12,HR-IXPWINDi_r2_v1.2.,2013-01-02 21:56:00,
2013-01-02 17:01:00,37.8,34.2,30.12,SSW,207,1.0,5.0,87,0.00,,,0.02,9,HR-IXPWINDi_r2_v1.2.,2013-01-02 22:01:00,
2013-01-02 17:07:00,37.7,34.4,30.12,SSW,208,0.0,5.0,88,0.00,,,0.02,7,HR-IXPWINDi_r2_v1.2.,2013-01-02 22:07:00,
2013-01-02 17:12:00,37.9,34.6,30.13,SSW,208,1.0,3.0,88,0.00,,,0.02,0,HR-IXPWINDi_r2_v1.2.,2013-01-02 22:12:00,
2013-01-02 17:17:00,37.5,34.2,30.12,SSW,208,3.0,5.0,88,0.00,,,0.02,0,HR-IXPWINDi_r2_v1.2.,2013-01-02 22:17:00,
2013-01-02 17:22:00,37.3,34.0,30.12,SSE,147,6.0,9.0,88,0.00,,,0.02,0,HR-IXPWINDi_r2_v1.2.,2013-01-02 22:22:00,
2013-01-02 17:28:00,37.1,33.8,30.12,South,187,2.0,9.0,88,0.00,,,0.02,0,HR-IXPWINDi_r2_v1.2.,2013-01-02 22:28:00,
2013-01-02 17:33:00,37.1,34.1,30.14,SSW,200,0.0,8.0,89,0.00,,,0.02,0,HR-IXPWINDi_r2_v1.2.,2013-01-02 22:33:00,
2013-01-02 17:38:00,37.1,34.1,30.14,SSW,200,3.0,6.0,89,0.00,,,0.02,0,HR-IXPWINDi_r2_v1.2.,2013-01-02 22:38:00,
2013-01-02 17:43:00,36.9,33.9,30.15,SSW,196,4.0,4.0,89,0.00,,,0.02,0,HR-IXPWINDi_r2_v1.2.,2013-01-02 22:43:00,
2013-01-02 17:49:00,36.7,33.7,30.15,South,186,4.0,6.0,89,0.00,,,0.02,0,HR-IXPWINDi_r2_v1.2.,2013-01-02 22:49:00,
2013-01-02 17:54:00,36.6,33.6,30.16,South,189,0.0,6.0,89,0.00,,,0.02,0,HR-IXPWINDi_r2_v1.2.,2013-01-02 22:54:00,
2013-01-02 17:59:00,36.5,33.5,30.15,South,189,3.0,5.0,89,0.00,,,0.02,0,HR-IXPWINDi_r2_v1.2.,2013-01-02 22:59:00,
2013-01-02 18:04:00,36.4,33.7,30.16,SSW,199,3.0,6.0,90,0.00,,,0.02,0,HR-IXPWINDi_r2_v1.2.,2013-01-02 23:04:00,
2013-01-02 18:09:00,36.3,33.6,30.15,SSW,196,2.0,6.0,90,0.00,,,0.02,0,HR-IXPWINDi_r2_v1.2.,2013-01-02 23:09:00,
2013-01-02 18:15:00,36.2,33.5,30.15,SSW,196,1.0,4.0,90,0.00,,,0.02,0,HR-IXPWINDi_r2_v1.2.,2013-01-02 23:15:00,
2013-01-02 18:20:00,36.2,33.5,30.15,South,176,2.0,4.0,90,0.00,,,0.02,0,HR-IXPWINDi_r2_v1.2.,2013-01-02 23:20:00,
2013-01-02 18:25:00,36.2,33.5,30.14,South,190,4.0,6.0,90,0.00,,,0.02,0,HR-IXPWINDi_r2_v1.2.,2013-01-02 23:25:00,
2013-01-02 18:30:00,36.1,33.4,30.15,South,190,3.0,6.0,90,0.00,,,0.02,0,HR-IXPWINDi_r2_v1.2.,2013-01-02 23:30:00,
2013-01-02 18:35:00,36.1,33.4,30.15,South,190,2.0,6.0,90,0.00,,,0.02,0,HR-IXPWINDi_r2_v1.2.,2013-01-02 23:35:00,
2013-01-02 18:41:00,36.1,33.4,30.17,South,190,4.0,5.0,90,0.00,,,0.02,0,HR-IXPWINDi_r2_v1.2.,2013-01-02 23:41:00,
2013-01-02 18:46:00,36.2,33.5,30.16,SSW,196,5.0,5.0,90,0.00,,,0.02,0,HR-IXPWINDi_r2_v1.2.,2013-01-02 23:46:00,
2013-01-02 18:51:00,36.1,33.4,30.17,SSW,196,0.0,5.0,90,0.00,,,0.02,0,HR-IXPWINDi_r2_v1.2.,2013-01-02 23:51:00,
2013-01-02 18:57:00,36.1,33.4,30.17,SSW,196,2.0,5.0,90,0.00,,,0.02,0,HR-IXPWINDi_r2_v1.2.,2013-01-02 23:57:00,
2013-01-02 19:02:00,36.2,33.5,30.15,SSW,196,1.0,3.0,90,0.00,,,0.02,0,HR-IXPWINDi_r2_v1.2.,2013-01-03 00:02:00,
2013-01-02 19:07:00,36.2,33.5,30.14,South,170,2.0,4.0,90,0.00,,,0.02,0,HR-IXPWINDi_r2_v1.2.,2013-01-03 00:07:00,
2013-01-02 19:12:00,36.2,33.5,30.14,South,170,0.0,4.0,90,0.00,,,0.02,0,HR-IXPWINDi_r2_v1.2.,2013-01-03 00:12:00,
2013-01-02 19:18:00,36.3,33.6,30.15,South,170,0.0,4.0,90,0.00,,,0.02,0,HR-IXPWINDi_r2_v1.2.,2013-01-03 00:18:00,
2013-01-02 19:23:00,36.2,33.5,30.15,South,180,0.0,4.0,90,0.00,,,0.02,0,HR-IXPWINDi_r2_v1.2.,2013-01-03 00:23:00,
2013-01-02 19:28:00,36.2,33.5,30.15,South,180,0.0,4.0,90,0.00,,,0.02,0,HR-IXPWINDi_r2_v1.2.,2013-01-03 00:28:00,
2013-01-02 19:33:00,36.1,33.4,30.15,South,181,0.0,4.0,90,0.00,,,0.02,0,HR-IXPWINDi_r2_v1.2.,2013-01-03 00:33:00,
2013-01-02 19:39:00,36.1,33.4,30.16,South,180,0.0,4.0,90,0.00,,,0.02,0,HR-IXPWINDi_r2_v1.2.,2013-01-03 00:39:00,
2013-01-02 19:44:00,36.3,33.9,30.16,South,180,1.0,2.0,91,0.00,,,0.02,0,HR-IXPWINDi_r2_v1.2.,2013-01-03 00:44:00,
2013-01-02 19:49:00,36.7,34.0,30.16,South,180,0.0,3.0,90,0.00,,,0.02,0,HR-IXPWINDi_r2_v1.2.,2013-01-03 00:49:00,
2013-01-02 19:54:00,36.7,34.0,30.16,South,180,0.0,3.0,90,0.00,,,0.02,0,HR-IXPWINDi_r2_v1.2.,2013-01-03 00:54:00,
2013-01-02 19:59:00,36.5,33.8,30.15,South,180,0.0,1.0,90,0.00,,,0.02,0,HR-IXPWINDi_r2_v1.2.,2013-01-03 00:59:00,
2013-01-02 20:04:00,36.3,33.6,30.16,South,180,0.0,1.0,90,0.00,,,0.02,0,HR-IXPWINDi_r2_v1.2.,2013-01-03 01:04:00,
2013-01-02 20:10:00,36.3,33.6,30.15,South,181,1.0,3.0,90,0.00,,,0.02,0,HR-IXPWINDi_r2_v1.2.,2013-01-03 01:10:00,
2013-01-02 20:15:00,36.1,33.4,30.16,South,180,0.0,3.0,90,0.00,,,0.02,0,HR-IXPWINDi_r2_v1.2.,2013-01-03 01:15:00,
2013-01-02 20:20:00,36.0,33.3,30.16,South,181,1.0,2.0,90,0.00,,,0.02,0,HR-IXPWINDi_r2_v1.2.,2013-01-03 01:20:00,
2013-01-02 20:25:00,36.1,33.4,30.16,SSW,198,0.0,3.0,90,0.00,,,0.02,0,HR-IXPWINDi_r2_v1.2.,2013-01-03 01:25:00,
2013-01-02 20:30:00,36.0,33.3,30.16,SSW,198,3.0,4.0,90,0.00,,,0.02,0,HR-IXPWINDi_r2_v1.2.,2013-01-03 01:30:00,
2013-01-02 20:36:00,35.9,33.5,30.17,SSW,198,2.0,4.0,91,0.00,,,0.02,0,HR-IXPWINDi_r2_v1.2.,2013-01-03 01:36:00,
2013-01-02 20:41:00,35.9,33.5,30.18,SSW,198,2.0,4.0,91,0.00,,,0.02,0,HR-IXPWINDi_r2_v1.2.,2013-01-03 01:41:00,
2013-01-02 20:46:00,35.9,33.5,30.17,South,169,4.0,4.0,91,0.00,,,0.02,0,HR-IXPWINDi_r2_v1.2.,2013-01-03 01:46:00,
2013-01-02 20:51:00,35.8,33.4,30.17,SSE,154,1.0,5.0,91,0.00,,,0.02,0,HR-IXPWINDi_r2_v1.2.,2013-01-03 01:51:00,
2013-01-02 20:56:00,35.8,33.4,30.16,SSE,154,1.0,5.0,91,0.00,,,0.02,0,HR-IXPWINDi_r2_v1.2.,2013-01-03 01:56:00,
2013-01-02 21:01:00,35.8,33.4,30.16,SSE,154,0.0,2.0,91,0.00,,,0.02,0,HR-IXPWINDi_r2_v1.2.,2013-01-03 02:01:00,
2013-01-02 21:07:00,35.9,33.5,30.16,SSE,154,0.0,1.0,91,0.00,,,0.02,0,HR-IXPWINDi_r2_v1.2.,2013-01-03 02:07:00,
2013-01-02 21:12:00,35.9,33.5,30.16,SSE,154,2.0,2.0,91,0.00,,,0.02,0,HR-IXPWINDi_r2_v1.2.,2013-01-03 02:12:00,
2013-01-02 21:17:00,35.7,33.3,30.17,SSE,154,0.0,2.0,91,0.00,,,0.02,0,HR-IXPWINDi_r2_v1.2.,2013-01-03 02:17:00,
2013-01-02 21:22:00,36.0,33.6,30.17,SSE,154,1.0,2.0,91,0.00,,,0.02,0,HR-IXPWINDi_r2_v1.2.,2013-01-03 02:22:00,
2013-01-02 21:27:00,35.9,33.5,30.18,SSE,154,0.0,1.0,91,0.00,,,0.02,0,HR-IXPWINDi_r2_v1.2.,2013-01-03 02:27:00,
2013-01-02 21:32:00,36.0,33.6,30.18,SSE,162,2.0,4.0,91,0.00,,,0.02,0,HR-IXPWINDi_r2_v1.2.,2013-01-03 02:32:00,
2013-01-02 21:37:00,36.0,33.6,30.18,SSE,162,0.0,4.0,91,0.00,,,0.02,0,HR-IXPWINDi_r2_v1.2.,2013-01-03 02:37:00,
2013-01-02 21:43:00,35.9,33.5,30.18,SSE,162,0.0,4.0,91,0.00,,,0.02,0,HR-IXPWINDi_r2_v1.2.,2013-01-03 02:43:00,
2013-01-02 21:48:00,36.0,33.6,30.18,SSE,162,0.0,4.0,91,0.00,,,0.02,0,HR-IXPWINDi_r2_v1.2.,2013-01-03 02:48:00,
2013-01-02 21:53:00,36.1,33.7,30.18,SSE,162,1.0,2.0,91,0.00,,,0.02,0,HR-IXPWINDi_r2_v1.2.,2013-01-03 02:53:00,
2013-01-02 21:58:00,36.1,33.7,30.18,SSE,162,1.0,2.0,91,0.00,,,0.02,0,HR-IXPWINDi_r2_v1.2.,2013-01-03 02:58:00,
2013-01-02 22:03:00,36.2,33.8,30.18,SSE,162,0.0,2.0,91,0.00,,,0.02,0,HR-IXPWINDi_r2_v1.2.,2013-01-03 03:03:00,
2013-01-02 22:08:00,36.1,33.7,30.18,SSE,162,0.0,2.0,91,0.00,,,0.02,0,HR-IXPWINDi_r2_v1.2.,2013-01-03 03:08:00,
2013-01-02 22:14:00,36.1,33.7,30.18,SSE,162,0.0,0.0,91,0.00,,,0.02,0,HR-IXPWINDi_r2_v1.2.,2013-01-03 03:14:00,
2013-01-02 22:19:00,36.1,33.7,30.18,SSE,162,0.0,2.0,91,0.00,,,0.02,0,HR-IXPWINDi_r2_v1.2.,2013-01-03 03:19:00,
2013-01-02 22:24:00,36.2,33.8,30.19,SSE,162,0.0,2.0,91,0.00,,,0.02,0,HR-IXPWINDi_r2_v1.2.,2013-01-03 03:24:00,
2013-01-02 22:29:00,36.2,33.8,30.19,SSE,162,0.0,1.0,91,0.00,,,0.02,0,HR-IXPWINDi_r2_v1.2.,2013-01-03 03:29:00,
2013-01-02 22:35:00,36.2,33.8,30.18,SSE,162,0.0,0.0,91,0.00,,,0.02,0,HR-IXPWINDi_r2_v1.2.,2013-01-03 03:35:00,
2013-01-02 22:40:00,36.2,33.8,30.18,SSE,162,0.0,1.0,91,0.00,,,0.02,0,HR-IXPWINDi_r2_v1.2.,2013-01-03 03:40:00,
2013-01-02 22:45:00,36.2,33.8,30.18,SSE,162,0.0,1.0,91,0.00,,,0.02,0,HR-IXPWINDi_r2_v1.2.,2013-01-03 03:45:00,
2013-01-02 22:50:00,36.2,33.8,30.18,SSE,162,0.0,1.0,91,0.00,,,0.02,0,HR-IXPWINDi_r2_v1.2.,2013-01-03 03:50:00,
2013-01-02 22:56:00,36.2,33.8,30.17,SSE,162,0.0,2.0,91,0.00,,,0.02,0,HR-IXPWINDi_r2_v1.2.,2013-01-03 03:56:00,
2013-01-02 23:01:00,36.2,33.8,30.17,SSE,162,0.0,2.0,91,0.00,,,0.02,0,HR-IXPWINDi_r2_v1.2.,2013-01-03 04:01:00,
2013-01-02 23:06:00,36.2,33.8,30.17,SSE,162,0.0,1.0,91,0.00,,,0.02,0,HR-IXPWINDi_r2_v1.2.,2013-01-03 04:06:00,
2013-01-02 23:11:00,36.3,33.9,30.17,SSE,162,0.0,0.0,91,0.00,,,0.02,0,HR-IXPWINDi_r2_v1.2.,2013-01-03 04:11:00,
2013-01-02 23:17:00,36.2,33.8,30.16,SSE,162,0.0,1.0,91,0.00,,,0.02,0,HR-IXPWINDi_r2_v1.2.,2013-01-03 04:17:00,
2013-01-02 23:22:00,36.2,33.8,30.16,SSE,162,0.0,1.0,91,0.00,,,0.02,0,HR-IXPWINDi_r2_v1.2.,2013-01-03 04:22:00,
2013-01-02 23:27:00,36.2,33.8,30.16,SSE,162,0.0,2.0,91,0.00,,,0.02,0,HR-IXPWINDi_r2_v1.2.,2013-01-03 04:27:00,
2013-01-02 23:32:00,36.2,33.8,30.16,SSE,162,1.0,2.0,91,0.00,,,0.02,0,HR-IXPWINDi_r2_v1.2.,2013-01-03 04:32:00,
2013-01-02 23:38:00,36.1,33.7,30.15,SSE,162,0.0,2.0,91,0.00,,,0.02,0,HR-IXPWINDi_r2_v1.2.,2013-01-03 04:38:00,
2013-01-02 23:43:00,36.1,33.7,30.15,SSE,162,0.0,2.0,91,0.00,,,0.02,0,HR-IXPWINDi_r2_v1.2.,2013-01-03 04:43:00,
2013-01-02 23:48:00,36.1,34.0,30.15,SSE,162,0.0,2.0,92,0.00,,,0.02,0,HR-IXPWINDi_r2_v1.2.,2013-01-03 04:48:00,
2013-01-02 23:53:00,36.2,34.1,30.14,SSE,165,4.0,4.0,92,0.00,,,0.02,0,HR-IXPWINDi_r2_v1.2.,2013-01-03 04:53:00,
2013-01-02 23:58:00,36.1,34.0,30.14,SSE,165,0.0,4.0,92,0.00,,,0.02,0,HR-IXPWINDi_r2_v1.2.,2013-01-03 04:58:00,